Regional Weather Roundup
Issued by NWS

Home | Current Version | Previous Version | Graphics & Text | Print | Product List | Glossary On
Versions: 1 2 3 4 5 6 7 8 9 10 11 12 13 14 15 16 17 18 19 20 21 22 23 24 25 26 27 28 29 30 31 32 33 34 35 36 37 38 39 40 41 42 43 44 45 46 47 48 49 50
000
ASUS43 KDMX 122007
RWRIA

WEATHER ROUNDUP FOR IOWA
NATIONAL WEATHER SERVICE DES MOINES IA
300 PM CDT SAT JUL 12 2014

NOTE: "FAIR" INDICATES FEW OR NO CLOUDS BELOW 12,000 FEET WITH NO
SIGNIFICANT WEATHER AND/OR OBSTRUCTIONS TO VISIBILITY.

* - THESE STATIONS ARE NOT NWS STATIONS...THUS NOT UNDER NWS
QUALITY CONTROL.  THEY ALSO DO NOT REPORT WEATHER SUCH
AS PRECIPITATION OR FOG.

IAZ001>003-012>014-020>022-031>034-043>046-122100-
   NORTHWEST IOWA

CITY           SKY/WX    TMP DP  RH WIND       PRES   REMARKS
CARROLL *      CLOUDY    75  72  88 NE9       30.00F
CHEROKEE *     CLOUDY    70  70 100 NE3       30.03S
DENISON *      CLOUDY    75  72  88 NE12      30.00R
LE MARS *      CLOUDY    73  68  83 N5        30.03F
ORANGE CITY *  LGT RAIN  72  66  83 CALM      30.03F
SHELDON *      PTSUNNY   73  68  83 CALM      30.02F
SIOUX CITY     LGT RAIN  74  68  81 NE8       30.02S
SPENCER        LGT RAIN  70  67  90 S6        30.03F
STORM LAKE *   CLOUDY    68  68 100 N9        30.04F
$$

IAZ055>058-069>071-079>083-090>094-122100-
   SOUTHWEST IOWA

CITY           SKY/WX    TMP DP  RH WIND       PRES   REMARKS
ATLANTIC *     PTSUNNY   86  73  66 W7        29.96S HX  93
AUDUBON *      SUNNY     84  79  84 N8        30.00S HX  96
CLARINDA *     SUNNY     88  77  70 S10       29.97S HX 100
COUNCIL BLFS * PTSUNNY   86  75  70 NW6G14    29.96S HX  95
CRESTON *      SUNNY     88  75  66 SW15      29.96F HX  97
HARLAN  *      PTSUNNY   81  75  83 N7G16     30.02R HX  86
LAMONI         MOSUNNY   89  73  59 S16       29.98F HX  97
RED OAK *      MOSUNNY   88  75  66 SW10      29.97R HX  97
SHENANDOAH *   SUNNY     90  77  66 SW8G14    29.96F HX 102
$$

IAZ047>049-059>061-072>074-084-122100-
   CENTRAL IOWA

CITY           SKY/WX    TMP DP  RH WIND       PRES   REMARKS
AMES           CLOUDY    81  72  74 NE6       29.97F HX  85
ANKENY *       CLOUDY    84  75  74 N8        29.95F HX  92
CHARITON *     SUNNY     88  73  62 S16       29.96F HX  96
DES MOINES     CLOUDY    87  74  64 S6        29.94F HX  95
GRINNELL*      PTSUNNY   84  73  70 S6        29.97F HX  91
KNOXVILLE *    SUNNY     88  75  66 SW6       29.94F HX  97
MARSHALLTOWN   CLOUDY    81  72  74 NE5       29.98F HX  85
PELLA *        PTSUNNY   88  73  62 SW5       29.96F HX  96
PERRY *        CLOUDY    81  73  78 N9        29.98S HX  85
$$

IAZ004>006-015-016-023>025-035-036-122100-
   NORTH CENTRAL IOWA

CITY           SKY/WX    TMP DP  RH WIND       PRES   REMARKS
ALGONA *       DRIZZLE   70  68  94 N5        30.03F
CLARION *      CLOUDY    70  68  94 NE12      30.00F
ESTHERVILLE    CLOUDY    72  66  81 NW7       30.02F
FORT DODGE *   CLOUDY    72  68  88 N7        30.02F
MASON CITY     LGT RAIN  68  67  96 N7        30.04R
FOREST CITY *  RAIN      68  68 100 N6        30.02F
IOWA FALLS *     N/A     79  68  69 NE3       30.00F HX  81
$$

IAZ007>011-017>019-026>030-037>042-050>054-066-122100-
   NORTHEAST IOWA

CITY           SKY/WX    TMP DP  RH WIND       PRES   REMARKS
CEDAR RAPIDS   CLOUDY    82  73  74 S5        29.97F HX  87
CHARLES CITY * LGT RAIN  68  66  94 N13G22    30.02F
CLINTON *      CLOUDY    82  73  74 S12       30.00F HX  88
DECORAH *        N/A    N/A N/A N/A MISG        N/A
DUBUQUE        CLOUDY    79  72  79 SW6       30.00S HX  82
MONTICELLO *   CLOUDY    81  73  78 CALM      29.98F HX  85
OELWEIN *      CLOUDY    77  77 100 SW6       30.01S
WATERLOO       LGT RAIN  79  70  74 S3        29.98F HX  82
$$

IAZ064-065-067-068-078-122100-
   EAST CENTRAL IOWA

CITY           SKY/WX    TMP DP  RH WIND       PRES   REMARKS
DAVENPORT      PTSUNNY   82  74  76 S6        29.98F HX  88
IOWA CITY      CLOUDY    84  76  76 S3        29.97F HX  93
MT. PLEASANT * PTSUNNY   90  72  55 S13G20    29.97F HX  96
MUSCATINE *    PTSUNNY   88  75  66 S12       29.96S HX  97
QUAD CITIES    PTSUNNY   85  76  74 S8        29.96F HX  94
$$

IAZ062-063-075>077-085>089-095>099-122100-
   SOUTHEAST IOWA

CITY           SKY/WX    TMP DP  RH WIND       PRES   REMARKS
BURLINGTON     MOSUNNY   88  74  63 S15       29.97F HX  96
FAIRFIELD *    SUNNY     88  75  66 S10G17    29.97S HX  97
FORT MADISON * SUNNY     88  77  70 S8G17     29.99F HX 100
KEOKUK *       SUNNY     88  75  66 S16       29.98F HX  97
OSKALOOSA *      N/A     88  75  66 SW12      29.96F HX  97
CENTERVILLE *  SUNNY     88  75  66 S12       30.00F HX  97
OTTUMWA        PTSUNNY   87  74  64 SW9G17    29.96F HX  95
WASHINGTON *   MOSUNNY   88  77  70 SW13      29.96F HX 100
$$

ABBREVIATIONS USED IN REMARKS
   TC - TEMPERATURES IN CELSIUS
  WCI - WIND CHILL INDEX
   HX - HEAT INDEX
  VSB - VISIBILITY
$$




USA.gov is the U.S. government's official web portal to all federal, state and local government web resources and services.